Location: Beekmeers
(50.8953°N, 3.6968°E)
Time: 02:56:31
(UTC+00:00)

Cosmos 1697 Rocket - Pass Details

Date: 23 May 2024
Orbit: 833 x 842 km, 71.0° (Epoch: 21 June)

Event Time Altitude Azimuth Distance (km) Brightness Sun altitude
Rises 00:57:09 0° 320° (NW) 3,399 6.3 -16.6°
Reaches altitude 10° 01:00:18 10° 302° (WNW) 2,457 5.3 -16.4°
Maximum altitude 01:04:00 18° 261° (W) 1,930 4.3 -16.2°
Enters shadow 01:05:31 17° 241° (WSW) 2,022 4.2 -16.1°
